Terminal Aerodrome Forecast
Issued by NWS

Home | Current Version | Previous Version | Graphics & Text | Print | Product List | Glossary On
Versions: 1 2 3 4 5 6 7 8 9 10 11 12 13 14 15 16
000
FTUS45 KGGW 260900 AAA
TAFSDY
TAF AMD
KSDY 260937Z 2610/2706 29006KT P6SM FEW025
      TEMPO 2610/2614 VRB03KT 5SM BR FEW030
     FM261400 34009KT P6SM BKN100
     FM270000 VRB06KT P6SM VCSH BKN060
      AMD LTD TO CLD VIS AND WIND=

USA.gov is the U.S. government's official web portal to all federal, state and local government web resources and services.